STARLINK-3779, 52281

Orbit data source: Space-Track

STARLINK-3779, 52281 is a payload satellite owned by SpaceX/Seattle (US) in LEO that was launched on Thu, 21 Apr 2022 UTC via an FALCON 9 launch vehicle from the Air Force Eastern Test Range (AFETR). Payload-class satellites include a variety of spacecraft equipped with specific instruments for various scientific and technological missions. These include communications satellites like Starlink; space stations such as the ISS; scientific satellites like the Hubble; Earth observation satellites from companies like Planet Labs, Umbra, and HawkEye 360; GPS; miniature CubeSats for education and research; and military/defense satellites.

Loading next visibility...
Identifier
52281, 2022-041W
Orbit
LEO
Country
Flag of USUS
Related business
Manufacturer
SpaceX/Seattle
Mission
Operational Commercial Communications
Bus & Motor
STARLINK, Unknown motor
Mass
297 kg wet, ~275 kg dry
Launch date (UTC)
2022-04-21 (4 years ago)
Launch vehicle
FALCON 9
Launch site
Air Force Eastern Test Range (AFETR)
Object type
Payload
Rocket body
Debris
Shape & HBR
Box + 1 Pan, 10.1 m
Radar Cross Section
11.087 m², Large (>1 m²)

Expand to show TLE details & history
Last TLE update: 8 hours ago

TLE from 8 hours ago
0 STARLINK-3779
1 52281U 22041W   26237.00002315  .01129059  00000-0  33846-1 0  9990
2 52281  53.1589  71.4743 0001461  96.2256  56.4137 15.31482063  5711
Epoch: 2026-08-25T00:00Z
TLE epoch observation values (Epoch: 2026-08-25T00:00:02.000Z)
Latitude
21.62142°
Longitude
-98.98417°
Altitude
471.448 km
Speed
7.634 km/s
True Right ascension
15h 37m 11s
True Declination
21° 29' 56"
Sunlit
Object was in daylight at epoch
Visualization orbit readout
Latitude
Unknown
Longitude
Unknown
Altitude
Unknown
Speed
Unknown
Apparent Right ascension
Unknown
Apparent Declination
Unknown
Sunlit
N/A
Visualization observer readout
Local Sidereal Time
23:02:28
Azimuth
Unknown
Elevation
Unknown
Doppler factor
Unknown
Orbital elements
Apogee altitude
472.647 km
Perigee altitude
470.646 km
Semi-major axis
6,849.783 km
Eccentricity
0.00015
Inclination
53.1589°
RAAN
71.4743°
Arg. of periapsis
96.2256°
True anomaly
56.42765°
Mean anomaly
56.4137°
Eccentric anomaly
56.42067°
Mean motion
3.82849 °/min
Orbital period
94.03 mins
BSTAR
0.033846
Loading maneuver chart data...
Computing Atmospheric mass density...

Documentation

Showing up to 5 results
|